DW4535 Weather Reports


Display with metric or nautical units.
time (UTC)temp
F
wind
direction
speed
MPH
gust
MPH
rain 1hr
in
rain 24hr
in
rain mn
in
humidity
%
barometer
mb
20210803131539 56 52 1.0 5.0 0.00 0.00 0.00 70 1020.3
20210803130036 56 78 1.0 7.0 0.00 0.00 0.00 70 1020.3
20210803124523 56 223 1.0 7.0 0.00 0.00 0.00 70 1020.2
20210803123020 56 309 1.0 5.0 0.00 0.00 0.00 70 1020.2
20210803121536 56 321 0.0 2.0 0.00 0.00 0.00 70 1020.3
20210803120026 56 338 1.0 3.0 0.00 0.00 0.00 70 1020.3
20210803114554 56 359 1.0 8.0 0.00 0.00 0.00 70 1020.1
20210803113058 56 260 1.0 4.0 0.00 0.00 0.00 70 1020.2
20210803111517 56 68 1.0 5.0 0.00 0.00 0.00 70 1020.1
20210803110025 56 49 2.0 8.0 0.00 0.00 0.00 70 1019.9
20210803104524 56 354 2.0 6.0 0.00 0.00 0.00 70 1019.8
20210803103012 56 53 1.0 9.0 0.00 0.00 0.00 70 1019.9
20210803101515 56 58 2.0 5.0 0.00 0.00 0.00 70 1019.8
20210803100008 56 32 2.0 6.0 0.00 0.00 0.00 70 1019.9
20210803094510 56 9 2.0 6.0 0.00 0.00 0.00 70 1020.0
20210803093005 56 60 3.0 6.0 0.00 0.00 0.00 70 1020.0
20210803091503 56 61 2.0 6.0 0.00 0.00 0.00 70 1020.2
20210803084757 56 45 2.0 5.0 0.00 0.00 0.00 70 1020.4
20210803083227 56 91 1.0 4.0 0.00 0.00 0.00 70 1020.4
20210803081745 56 101 2.0 5.0 0.00 0.00 0.00 70 1020.4
20210803080303 56 64 2.0 5.0 0.00 0.00 0.00 70 1020.5
20210803074707 56 85 2.0 4.0 0.00 0.00 0.00 70 1020.4
20210803074616 55 85 2.0 4.0 0.00 0.00 0.00 70 1020.4
20210803073143 56 89 2.0 5.0 0.00 0.00 0.00 70 1020.4
20210803071708 56 95 1.0 3.0 0.00 0.00 0.00 70 1020.4
20210803070147 56 92 2.0 4.0 0.00 0.00 0.00 70 1020.5
20210803064626 56 86 1.0 5.0 0.00 0.00 0.00 69 1020.5
20210803063126 56 87 2.0 3.0 0.00 0.00 0.00 69 1020.6
20210803061730 57 75 2.0 6.0 0.00 0.00 0.00 69 1020.4
20210803060219 57 56 2.0 7.0 0.00 0.00 0.00 69 1020.4
20210803054626 57 64 2.0 5.0 0.00 0.00 0.00 68 1020.4
20210803053112 57 84 2.0 6.0 0.00 0.00 0.00 68 1020.5
20210803051731 57 28 2.0 5.0 0.00 0.00 0.00 68 1020.5
20210803050214 57 100 2.0 5.0 0.00 0.00 0.00 67 1020.3
20210803044608 57 51 1.0 4.0 0.00 0.00 0.00 66 1020.0
20210803043137 57 93 1.0 4.0 0.00 0.00 0.00 66 1020.0
20210803041627 58 60 1.0 5.0 0.00 0.00 0.00 65 1019.9
20210803040111 58 41 0.0 8.0 0.00 0.00 0.00 65 1019.7
20210803034633 59 56 2.0 6.0 0.00 0.00 0.00 64 1019.8
20210803033146 59 31 2.0 5.0 0.00 0.00 0.00 64 1019.9
20210803031631 59 311 3.0 7.0 0.00 0.00 0.00 64 1019.9
20210803030048 59 308 2.0 5.0 0.00 0.00 0.00 63 1019.8
20210803024624 60 282 3.0 7.0 0.00 0.00 0.00 63 1019.9
20210803023109 62 276 2.0 8.0 0.00 0.00 0.00 62 1019.8
20210803021650 62 309 2.0 6.0 0.00 0.00 0.00 63 1019.7
20210803020240 61 279 2.0 9.0 0.00 0.00 0.00 63 1019.6
20210803014557 61 276 6.0 10.0 0.00 0.00 0.00 63 1019.5
20210803013145 61 277 7.0 14.0 0.00 0.00 0.00 63 1019.7
20210803011557 61 297 9.0 15.0 0.00 0.00 0.00 62 1019.8
20210803010053 62 315 9.0 17.0 0.00 0.00 0.00 61 1019.7
20210803004620 62 264 8.0 13.0 0.00 0.00 0.00 61 1019.7
20210803003130 62 302 10.0 18.0 0.00 0.00 0.00 61 1019.8
20210803001544 63 274 9.0 15.0 0.00 0.00 0.00 61 1019.7
20210803000048 63 259 9.0 15.0 0.00 0.00 0.00 61 1019.7
20210802234605 63 274 9.0 14.0 0.00 0.00 0.00 61 1019.7
20210802233038 63 285 10.0 16.0 0.00 0.00 0.00 61 1019.9
20210802231547 63 280 9.0 15.0 0.00 0.00 0.00 61 1020.0
20210802230114 63 297 7.0 13.0 0.00 0.00 0.00 61 1019.7
20210802224602 64 303 7.0 15.0 0.00 0.00 0.00 60 1019.9
20210802223049 64 288 10.0 17.0 0.00 0.00 0.00 60 1020.0
20210802221543 64 293 10.0 17.0 0.00 0.00 0.00 61 1020.1
20210802220107 64 277 10.0 18.0 0.00 0.00 0.00 61 1020.1
20210802214523 64 274 9.0 16.0 0.00 0.00 0.00 62 1020.3
20210802213015 63 274 11.0 16.0 0.00 0.00 0.00 63 1020.2
20210802211521 63 281 9.0 15.0 0.00 0.00 0.00 64 1020.3
20210802210031 61 274 11.0 20.0 0.00 0.00 0.00 64 1020.4
20210802204509 60 279 12.0 18.0 0.00 0.00 0.00 66 1020.3
20210802203009 58 297 13.0 20.0 0.00 0.00 0.00 68 1020.0
20210802201506 59 267 13.0 19.0 0.00 0.00 0.00 68 1019.9
20210802200007 59 283 11.0 18.0 0.00 0.00 0.00 68 1020.1
20210802194505 58 293 13.0 22.0 0.00 0.00 0.00 68 1020.1
20210802193002 58 276 14.0 21.0 0.00 0.00 0.00 69 1020.1
20210802191625 58 278 14.0 20.0 0.00 0.00 0.00 68 1020.1
20210802190211 57 299 15.0 20.0 0.00 0.00 0.00 68 1020.3
20210802184737 58 283 14.0 20.0 0.00 0.00 0.00 68 1020.3
20210802183237 59 304 10.0 14.0 0.00 0.00 0.00 67 1020.4
20210802181706 61 23 4.0 11.0 0.00 0.00 0.00 67 1020.1
20210802180138 59 349 5.0 10.0 0.00 0.00 0.00 69 1019.9
20210802174703 58 269 6.0 11.0 0.00 0.00 0.00 69 1020.3
20210802173227 57 271 5.0 11.0 0.00 0.00 0.00 70 1020.5
20210802171640 57 288 6.0 12.0 0.00 0.00 0.00 70 1020.7
20210802170137 57 274 4.0 0.0 0.00 0.00 0.00 70 1020.8
20210802164608 57 283 4.0 8.0 0.00 0.00 0.00 70 1021.0
20210802163127 57 314 2.0 6.0 0.00 0.00 0.00 71 1021.1
20210802161513 57 299 3.0 6.0 0.00 0.00 0.00 71 1021.2
20210802160032 57 283 3.0 6.0 0.00 0.00 0.00 71 1021.0
20210802154520 57 310 1.0 6.0 0.00 0.00 0.00 71 1020.8
20210802153022 57 38 1.0 6.0 0.00 0.00 0.00 71 1020.9
20210802151514 56 281 2.0 6.0 0.00 0.00 0.00 71 1021.2
20210802150019 56 275 3.0 8.0 0.00 0.00 0.00 71 1021.4
20210802144510 56 296 2.0 6.0 0.00 0.00 0.00 71 1021.5
20210802143009 56 46 3.0 5.0 0.00 0.00 0.00 71 1021.4
20210802141507 56 86 2.0 6.0 0.00 0.00 0.00 70 1021.5
20210802140007 56 67 3.0 8.0 0.00 0.00 0.00 70 1021.7
20210802134524 56 51 3.0 7.0 0.00 0.00 0.00 70 1021.8
20210802133008 56 15 1.0 5.0 0.00 0.00 0.00 70 1021.8